EUTELSAT QUANTUM (49056 NORAD) Tracking and Keplerian Element Data

This shows tracking and keplerian element data for the satellite.

Feedback or suggestion? Click here.




ElementValue
Catalog49056
NameEUTELSAT QUANTUM
Epoch Orbit55
Epoch Day261.7574367
Epoch Year2021
RAAN217.549
Inclination0.0198
Eccentricity0.0001855
Argument of Perigee17.226
Mean Anonmoly83.4845
Mean Motion1.0027162
Decay Rate1.02E-06
L11 49056U 21069B 21261.75743670 .00000102 00000-0 00000-0 0 9996
L22 49056 0.0198 217.5490 0001855 17.2260 83.4845 1.00271620 550

Live tracking and technical data element details for EUTELSAT QUANTUM (NORAD 49056). EUTELSAT QUANTUM can be tracked NOW for your location showing map with azimuth and elevation plus other details from your city location.

Track the satellite on the map from your city or location and see movement details for azimuth, elevation, latitude, longitude, range, height, and movement on the map or in text.







IsCatalogInMostPopularTable: catalog: 49056, numindb: 13
Update: records affected: 1



GetName: 49056 EUTELSAT QUANTUM

Hit Count: updated at: Fri, 24 Sep 2021 17:27:41 GMT